| time (UTC) | temp C | wind direction | speed KPH | gust KPH | rain 1hr cm | rain 24hr cm | rain mn cm | humidity % | barometer mb |
| 20260503050519 | 1 | 247 | 0.0 | 1.6 | 0.00 | 0.00 | 0.00 | 89 | 1017.1 |
| 20260503045520 | 1 | 203 | 0.0 | 1.6 | 0.00 | 0.00 | 0.00 | 88 | 1017.1 |
| 20260503044637 | 2 | 233 | 0.0 | 1.6 | 0.00 | 0.00 | 0.00 | 87 | 1017.1 |
| 20260503043520 | 2 | 278 | 0.0 | 1.6 | 0.00 | 0.00 | 0.00 | 86 | 1017.0 |
| 20260503042520 | 2 | 259 | 0.0 | 1.6 | 0.00 | 0.00 | 0.00 | 84 | 1017.0 |
| 20260503041522 | 2 | 297 | 0.0 | 1.6 | 0.00 | 0.00 | 0.00 | 84 | 1017.1 |
| 20260503040517 | 2 | 160 | 0.0 | 1.6 | 0.00 | 0.00 | 0.00 | 83 | 1017.1 |
| 20260503035537 | 3 | 236 | 0.0 | 1.6 | 0.00 | 0.00 | 0.00 | 83 | 1017.1 |
| 20260503034517 | 3 | 221 | 0.0 | 1.6 | 0.00 | 0.00 | 0.00 | 82 | 1017.0 |
| 20260503033517 | 3 | 232 | 0.0 | 1.6 | 0.00 | 0.00 | 0.00 | 82 | 1017.0 |
| 20260503032520 | 3 | 291 | 0.0 | 3.2 | 0.00 | 0.00 | 0.00 | 81 | 1017.2 |
| 20260503031518 | 3 | 244 | 0.0 | 1.6 | 0.00 | 0.00 | 0.00 | 81 | 1017.2 |
| 20260503030518 | 3 | 230 | 0.0 | 1.6 | 0.00 | 0.00 | 0.00 | 80 | 1017.3 |
| 20260503025541 | 3 | 190 | 0.0 | 1.6 | 0.00 | 0.00 | 0.00 | 80 | 1017.4 |
| 20260503024521 | 3 | 285 | 0.0 | 1.6 | 0.00 | 0.00 | 0.00 | 79 | 1017.4 |
| 20260503023518 | 3 | 269 | 0.0 | 3.2 | 0.00 | 0.00 | 0.00 | 77 | 1017.5 |
| 20260503022538 | 3 | 278 | 0.0 | 1.6 | 0.00 | 0.00 | 0.00 | 77 | 1017.6 |
| 20260503021518 | 4 | 296 | 1.6 | 3.2 | 0.00 | 0.00 | 0.00 | 74 | 1017.5 |
| 20260503020518 | 5 | 251 | 0.0 | 3.2 | 0.00 | 0.00 | 0.00 | 71 | 1017.5 |
| 20260503015519 | 5 | 290 | 0.0 | 1.6 | 0.00 | 0.00 | 0.00 | 67 | 1017.4 |
| 20260503014518 | 6 | 305 | 0.0 | 1.6 | 0.00 | 0.00 | 0.00 | 64 | 1017.3 |
| 20260503013518 | 6 | 263 | 0.0 | 1.6 | 0.00 | 0.00 | 0.00 | 64 | 1017.1 |
| 20260503012558 | 6 | 269 | 0.0 | 1.6 | 0.00 | 0.00 | 0.00 | 62 | 1017.0 |
| 20260503011519 | 6 | 247 | 0.0 | 3.2 | 0.00 | 0.00 | 0.00 | 63 | 1017.0 |
| 20260503010539 | 6 | 274 | 0.0 | 1.6 | 0.00 | 0.00 | 0.00 | 61 | 1017.0 |
| 20260503005519 | 7 | 346 | 0.0 | 3.2 | 0.00 | 0.08 | 0.00 | 60 | 1016.8 |
| 20260503004516 | 7 | 4 | 0.0 | 1.6 | 0.00 | 0.20 | 0.00 | 61 | 1016.8 |
| 20260503003519 | 7 | 24 | 1.6 | 6.4 | 0.00 | 0.20 | 0.00 | 59 | 1016.7 |
| 20260503002539 | 7 | 1 | 1.6 | 6.4 | 0.00 | 0.20 | 0.00 | 60 | 1016.8 |
| 20260503001516 | 7 | 21 | 0.0 | 3.2 | 0.00 | 0.20 | 0.00 | 60 | 1016.6 |
| 20260503000618 | 7 | 14 | 1.6 | 9.7 | 0.00 | 0.20 | 0.00 | 59 | 1016.5 |
| 20260502235517 | 7 | 305 | 1.6 | 6.4 | 0.00 | 0.20 | 0.00 | 58 | 1016.5 |
| 20260502234520 | 7 | 17 | 1.6 | 8.0 | 0.00 | 0.20 | 0.00 | 58 | 1016.5 |
| 20260502233520 | 7 | 240 | 1.6 | 6.4 | 0.00 | 0.20 | 0.00 | 58 | 1016.5 |
| 20260502232521 | 7 | 6 | 1.6 | 12.9 | 0.00 | 0.20 | 0.00 | 57 | 1016.4 |
| 20260502231517 | 7 | 275 | 1.6 | 8.0 | 0.00 | 0.20 | 0.00 | 56 | 1016.4 |
| 20260502230520 | 8 | 319 | 1.6 | 9.7 | 0.00 | 0.20 | 0.00 | 57 | 1016.4 |
| 20260502225520 | 8 | 30 | 3.2 | 11.3 | 0.00 | 0.20 | 0.00 | 56 | 1016.4 |
| 20260502224520 | 8 | 276 | 1.6 | 6.4 | 0.00 | 0.20 | 0.00 | 56 | 1016.4 |
| 20260502223518 | 8 | 278 | 1.6 | 4.8 | 0.00 | 0.20 | 0.00 | 55 | 1016.4 |
| 20260502222538 | 8 | 259 | 1.6 | 3.2 | 0.00 | 0.20 | 0.00 | 56 | 1016.3 |
| 20260502221517 | 8 | 359 | 1.6 | 4.8 | 0.00 | 0.20 | 0.00 | 54 | 1016.3 |
| 20260502220518 | 8 | 289 | 1.6 | 4.8 | 0.00 | 0.20 | 0.00 | 54 | 1016.3 |
| 20260502215518 | 8 | 345 | 1.6 | 6.4 | 0.00 | 0.20 | 0.00 | 53 | 1016.1 |
| 20260502214558 | 8 | 345 | 1.6 | 8.0 | 0.00 | 0.20 | 0.00 | 53 | 1016.2 |
| 20260502213519 | 8 | 308 | 1.6 | 8.0 | 0.00 | 0.20 | 0.00 | 54 | 1016.1 |
| 20260502212538 | 8 | 338 | 1.6 | 3.2 | 0.00 | 0.20 | 0.00 | 55 | 1016.0 |
| 20260502211519 | 8 | 311 | 1.6 | 4.8 | 0.00 | 0.20 | 0.00 | 55 | 1015.9 |
| 20260502210519 | 8 | 7 | 1.6 | 4.8 | 0.00 | 0.20 | 0.00 | 53 | 1015.9 |
| 20260502205518 | 9 | 316 | 1.6 | 4.8 | 0.00 | 0.20 | 0.00 | 53 | 1015.9 |
| 20260502204519 | 9 | 334 | 1.6 | 4.8 | 0.00 | 0.20 | 0.00 | 54 | 1015.7 |
| 20260502203519 | 8 | 327 | 1.6 | 4.8 | 0.00 | 0.20 | 0.00 | 55 | 1015.9 |
| 20260502202520 | 8 | 319 | 1.6 | 3.2 | 0.00 | 0.20 | 0.00 | 54 | 1015.9 |
| 20260502201519 | 8 | 333 | 1.6 | 6.4 | 0.00 | 0.20 | 0.00 | 53 | 1016.0 |
| 20260502200519 | 9 | 352 | 1.6 | 11.3 | 0.00 | 0.20 | 0.00 | 52 | 1016.0 |
| 20260502195516 | 8 | 321 | 1.6 | 3.2 | 0.00 | 0.20 | 0.00 | 52 | 1016.0 |
| 20260502194519 | 8 | 12 | 1.6 | 9.7 | 0.00 | 0.20 | 0.00 | 54 | 1016.3 |
| 20260502193519 | 9 | 354 | 1.6 | 8.0 | 0.00 | 0.20 | 0.00 | 54 | 1016.3 |
| 20260502192520 | 9 | 339 | 1.6 | 4.8 | 0.00 | 0.20 | 0.00 | 53 | 1016.4 |
| 20260502191521 | 9 | 10 | 1.6 | 6.4 | 0.00 | 0.20 | 0.00 | 51 | 1016.0 |
| 20260502190517 | 8 | 339 | 1.6 | 4.8 | 0.00 | 0.20 | 0.00 | 55 | 1016.4 |
| 20260502185537 | 8 | 337 | 1.6 | 4.8 | 0.00 | 0.20 | 0.00 | 56 | 1016.6 |
| 20260502184600 | 8 | 12 | 3.2 | 11.3 | 0.00 | 0.20 | 0.00 | 57 | 1016.2 |
| 20260502183521 | 8 | 351 | 1.6 | 4.8 | 0.00 | 0.20 | 0.00 | 56 | 1016.7 |
| 20260502182517 | 9 | 1 | 3.2 | 9.7 | 0.00 | 0.20 | 0.00 | 52 | 1016.1 |
| 20260502181518 | 8 | 12 | 1.6 | 8.0 | 0.00 | 0.20 | 0.00 | 56 | 1016.6 |
| 20260502180517 | 9 | 347 | 3.2 | 12.9 | 0.00 | 0.20 | 0.00 | 54 | 1016.6 |
| 20260502170519 | 8 | 334 | 1.6 | 11.3 | 0.00 | 0.20 | 0.00 | 57 | 1016.4 |
| 20260502163519 | 8 | 11 | 3.2 | 12.9 | 0.00 | 0.23 | 0.00 | 57 | 1016.9 |
| 20260502162518 | 8 | 348 | 1.6 | 6.4 | 0.00 | 0.23 | 0.00 | 58 | 1017.2 |
| 20260502161519 | 8 | 32 | 1.6 | 4.8 | 0.00 | 0.23 | 0.00 | 61 | 1016.1 |
| 20260502160516 | 7 | 15 | 3.2 | 11.3 | 0.00 | 0.23 | 0.00 | 63 | 1017.0 |
| 20260502151516 | 7 | 22 | 4.8 | 11.3 | 0.00 | 0.56 | 0.00 | 66 | 1016.5 |
| 20260502150536 | 7 | 348 | 3.2 | 11.3 | 0.00 | 0.61 | 0.00 | 68 | 1017.0 |
| 20260502130538 | 4 | 346 | 1.6 | 8.0 | 0.00 | 1.07 | 0.00 | 81 | 1016.4 |
| 20260502123541 | 3 | 355 | 1.6 | 4.8 | 0.00 | 1.14 | 0.00 | 82 | 1016.1 |
| 20260502122518 | 2 | 306 | 1.6 | 3.2 | 0.00 | 1.17 | 0.00 | 85 | 1016.2 |
| 20260502121519 | 2 | 291 | 1.6 | 4.8 | 0.00 | 1.17 | 0.00 | 87 | 1016.1 |
| 20260502120518 | 2 | 294 | 1.6 | 3.2 | 0.00 | 1.17 | 0.00 | 88 | 1016.0 |
| 20260502115518 | 1 | 304 | 0.0 | 3.2 | 0.00 | 1.17 | 0.00 | 92 | 1016.0 |
| 20260502114518 | 1 | 353 | 1.6 | 4.8 | 0.00 | 1.17 | 0.00 | 95 | 1016.0 |
| 20260502113519 | 1 | 289 | 1.6 | 3.2 | 0.00 | 1.17 | 0.00 | 98 | 1016.1 |
| 20260502112536 | 0 | 251 | 1.6 | 3.2 | 0.00 | 1.17 | 0.00 | 99 | 1016.0 |
| 20260502111519 | 0 | 247 | 0.0 | 1.6 | 0.00 | 1.17 | 0.00 | 99 | 1016.0 |
| 20260502110519 | 0 | 276 | 0.0 | 1.6 | 0.00 | 1.17 | 0.00 | 99 | 1016.0 |
| 20260502105519 | 0 | 248 | 0.0 | 1.6 | 0.00 | 1.17 | 0.00 | 99 | 1016.1 |
| 20260502104539 | 0 | 266 | 0.0 | 1.6 | 0.00 | 1.17 | 0.00 | 100 | 1016.0 |
| 20260502103539 | 0 | 265 | 0.0 | 1.6 | 0.00 | 1.17 | 0.00 | 100 | 1016.0 |
| 20260502102519 | 0 | 265 | 0.0 | 3.2 | 0.00 | 1.17 | 0.00 | 100 | 1016.1 |
| 20260502101619 | 0 | 267 | 0.0 | 1.6 | 0.00 | 1.17 | 0.00 | 100 | 1016.1 |
| 20260502100519 | 0 | 276 | 0.0 | 1.6 | 0.00 | 1.17 | 0.00 | 100 | 1016.0 |
| 20260502091518 | 0 | 299 | 0.0 | 1.6 | 0.00 | 1.17 | 0.00 | 99 | 1016.1 |
| 20260502090518 | 0 | 300 | 0.0 | 1.6 | 0.00 | 1.17 | 0.00 | 99 | 1016.0 |
| 20260502071520 | 1 | 290 | 0.0 | 1.6 | 0.00 | 1.17 | 0.00 | 100 | 1015.8 |
| 20260502070519 | 1 | 263 | 0.0 | 1.6 | 0.00 | 1.17 | 0.00 | 100 | 1016.0 |
| 20260502065519 | 1 | 316 | 0.0 | 1.6 | 0.00 | 1.17 | 0.00 | 100 | 1016.0 |
| 20260502064539 | 1 | 308 | 0.0 | 1.6 | 0.00 | 1.17 | 0.00 | 100 | 1016.1 |
| 20260502063520 | 1 | 289 | 0.0 | 1.6 | 0.00 | 1.17 | 0.00 | 100 | 1016.1 |
| 20260502062540 | 1 | 304 | 0.0 | 1.6 | 0.00 | 1.17 | 0.00 | 100 | 1016.1 |
| 20260502061517 | 1 | 236 | 0.0 | 1.6 | 0.00 | 1.17 | 0.00 | 100 | 1016.2 |
| 20260502060517 | 2 | 234 | 0.0 | 1.6 | 0.00 | 1.17 | 0.00 | 100 | 1016.2 |
| 20260502055540 | 2 | 310 | 0.0 | 1.6 | 0.00 | 1.17 | 0.00 | 100 | 1016.2 |
| 20260502054521 | 2 | 316 | 0.0 | 1.6 | 0.00 | 1.17 | 0.00 | 99 | 1016.3 |
| 20260502053521 | 2 | 266 | 0.0 | 1.6 | 0.00 | 1.17 | 0.00 | 99 | 1016.5 |
| 20260502052518 | 2 | 271 | 0.0 | 3.2 | 0.00 | 1.17 | 0.00 | 99 | 1016.5 |
| 20260502051519 | 2 | 270 | 0.0 | 1.6 | 0.00 | 1.17 | 0.00 | 99 | 1016.4 |